Change the Weather History Date:

Friday, June 28, 2013

  Actual Average Record
Temperature  
Mean Temperature 82 °F 79 °F  
Max Temperature 86 °F 87 °F 99 °F (1998)
Min Temperature 78 °F 72 °F 60 °F (2012)
Degree Days  
Heating Degree Days 0 0  
Month to date heating degree days 0 0  
Since 1 June heating degree days 0 0  
Since 1 July heating degree days 2416 2447  
Cooling Degree Days 17 14  
Month to date cooling degree days 359 328  
Year to date cooling degree days 539 540  
Since 1 June cooling degree days 359 328  
Growing Degree Days 32 (Base 50)    
Moisture  
Dew Point 76 °F    
Average Humidity 82    
Maximum Humidity 94    
Minimum Humidity 70    
Precipitation  
Precipitation T in 0.16 in 1.35 in (2014)
Month to date precipitation 7.32 4.30  
Year to date precipitation 24.76 21.70  
Sea Level Pressure  
Sea Level Pressure 29.75 in    
Wind  
Wind Speed 14 mph (SW)    
Max Wind Speed 28 mph    
Max Gust Speed 35 mph    
Visibility 10 miles    
Events Rain , Thunderstorm    
T = Trace of Precipitation, MM = Missing Value Source: NWS Daily Summary

Daily Weather History Graph

Daily Weather History Graph

Search for Another Location

Airport or City:

Trip Planner

Search our weather history database for the weather conditions in past years. The results will help you decide how hot, cold, wet, or windy it might be!

Date:

Astronomy

Jun. 28, 2013 Rise Set
Actual Time 6:06 AM EDT 8:29 PM EDT
Civil Twilight 5:37 AM EDT 8:58 PM EDT
Nautical Twilight 5:01 AM EDT 9:34 PM EDT
Astronomical Twilight 4:22 AM EDT 10:13 PM EDT
Moon No Moon Rise 11:54 AM EDT (6/28)
Length of Visible Light 15h 21m
Length of Day
14h 22m
Waning Gibbous, 66% of the Moon is Illuminated
Jun 28
Waning Gibbous
Jun 30
Last Quarter
Jul 8
New
Jul 15
First Quarter
Jul 22
Full

Hourly Weather History & Observations

Time (EDT) Temp. Heat Index Dew Point Humidity Pressure Visibility Wind Dir Wind Speed Gust Speed Precip Events Conditions
12:11 AM 80.6 °F 87.1 °F 77.0 °F 89% 29.82 in 9.0 mi SW 18.4 mph - N/A   Scattered Clouds
12:53 AM 81.0 °F 88.6 °F 78.1 °F 91% 29.82 in 9.0 mi SSW 20.7 mph 26.5 mph 0.00 in   Overcast
1:06 AM 80.6 °F 88.1 °F 78.8 °F 94% 29.82 in 9.0 mi SSW 18.4 mph 25.3 mph N/A   Overcast
1:17 AM 80.6 °F 87.1 °F 77.0 °F 89% 29.81 in 10.0 mi SSW 20.7 mph 28.8 mph N/A   Overcast
1:32 AM 80.6 °F 87.1 °F 77.0 °F 89% 29.80 in 10.0 mi SSW 20.7 mph 29.9 mph N/A   Overcast
1:53 AM 80.1 °F 85.8 °F 77.0 °F 90% 29.82 in 10.0 mi SW 19.6 mph 26.5 mph N/A   Overcast
2:24 AM 80.6 °F 87.1 °F 77.0 °F 89% 29.80 in 10.0 mi SW 18.4 mph - N/A Thunderstorm Thunderstorm
2:53 AM 80.1 °F 85.8 °F 77.0 °F 90% 29.80 in 10.0 mi SW 13.8 mph - 0.00 in Rain , Thunderstorm Light Rain
3:03 AM 80.6 °F 87.1 °F 77.0 °F 89% 29.79 in 9.0 mi SW 15.0 mph - 0.00 in   Overcast
3:23 AM 80.6 °F 87.1 °F 77.0 °F 89% 29.77 in 9.0 mi SSW 19.6 mph 24.2 mph 0.00 in   Scattered Clouds
3:53 AM 80.1 °F 85.4 °F 75.9 °F 87% 29.77 in 10.0 mi WSW 6.9 mph - 0.00 in Rain Light Rain
4:53 AM 80.1 °F 85.4 °F 75.9 °F 87% 29.74 in 10.0 mi SW 10.4 mph - 0.00 in   Mostly Cloudy
5:08 AM 78.8 °F - 75.2 °F 89% 29.73 in 10.0 mi WSW 10.4 mph - N/A   Scattered Clouds
5:53 AM 79.0 °F - 73.0 °F 82% 29.74 in 10.0 mi WSW 10.4 mph 18.4 mph N/A   Clear
6:53 AM 78.1 °F - 73.0 °F 84% 29.77 in 10.0 mi SW 9.2 mph - N/A   Clear
7:53 AM 79.0 °F - 73.0 °F 82% 29.77 in 10.0 mi WSW 8.1 mph - N/A   Clear
8:53 AM 81.0 °F 86.2 °F 73.9 °F 79% 29.76 in 10.0 mi West 9.2 mph - N/A   Scattered Clouds
9:01 AM 80.6 °F 85.4 °F 73.4 °F 79% 29.76 in 10.0 mi SW 11.5 mph - N/A   Mostly Cloudy
9:48 AM 82.4 °F 88.2 °F 73.4 °F 74% 29.76 in 10.0 mi West 8.1 mph - N/A   Scattered Clouds
9:53 AM 82.0 °F 87.9 °F 73.9 °F 76% 29.76 in 10.0 mi West 5.8 mph - N/A   Scattered Clouds
10:11 AM 82.4 °F 88.2 °F 73.4 °F 74% 29.76 in 10.0 mi SW 9.2 mph - N/A   Mostly Cloudy
10:53 AM 82.9 °F 89.4 °F 73.9 °F 74% 29.76 in 10.0 mi WSW 11.5 mph - N/A   Overcast
11:53 AM 84.0 °F 91.9 °F 75.0 °F 74% 29.76 in 10.0 mi SW 9.2 mph - N/A   Scattered Clouds
12:53 PM 84.0 °F 91.9 °F 75.0 °F 74% 29.75 in 10.0 mi South 11.5 mph - N/A   Clear
1:53 PM 86.0 °F 96.0 °F 75.9 °F 72% 29.73 in 10.0 mi SSW 12.7 mph - N/A   Clear
2:53 PM 86.0 °F 96.9 °F 77.0 °F 74% 29.71 in 10.0 mi SSW 20.7 mph 27.6 mph N/A   Scattered Clouds
3:53 PM 84.9 °F 95.3 °F 77.0 °F 77% 29.70 in 10.0 mi SSW 20.7 mph 29.9 mph N/A   Partly Cloudy
4:53 PM 84.9 °F 96.6 °F 78.1 °F 80% 29.69 in 9.0 mi SSW 19.6 mph 29.9 mph N/A   Clear
5:53 PM 84.0 °F 94.8 °F 78.1 °F 82% 29.67 in 9.0 mi SSW 20.7 mph 28.8 mph N/A   Clear
6:53 PM 84.0 °F 94.8 °F 78.1 °F 82% 29.67 in 9.0 mi SSW 23.0 mph 29.9 mph N/A   Clear
7:53 PM 82.9 °F 92.8 °F 78.1 °F 85% 29.68 in 8.0 mi SW 17.3 mph - N/A   Clear
8:53 PM 82.9 °F 92.8 °F 78.1 °F 85% 29.68 in 8.0 mi SW 16.1 mph 20.7 mph N/A   Clear
9:53 PM 82.0 °F 91.0 °F 78.1 °F 88% 29.68 in 9.0 mi SSW 12.7 mph - N/A   Clear
10:53 PM 82.0 °F 91.0 °F 78.1 °F 88% 29.68 in 9.0 mi SSW 13.8 mph 21.9 mph N/A   Clear
11:53 PM 81.0 °F 87.9 °F 77.0 °F 88% 29.69 in 10.0 mi SSW 16.1 mph - N/A   Clear